TimeEDT,TemperatureF,Dew PointF,Humidity,Sea Level PressureIn,VisibilityMPH,Wind Direction,Wind SpeedMPH,Gust SpeedMPH,PrecipitationIn,Events,Conditions,WindDirDegrees,DateUTC
12:15 AM,64.2,52.7,66,29.93,10.0,North,5.8,-,N/A,,Mostly Cloudy,10,2013-09-14 04:15:00
12:35 AM,63.5,51.1,64,29.93,10.0,North,5.8,-,N/A,,Scattered Clouds,10,2013-09-14 04:35:00
12:55 AM,63.5,50.2,62,29.94,10.0,NNE,5.8,-,N/A,,Clear,20,2013-09-14 04:55:00
1:15 AM,63.5,50.0,61,29.94,10.0,NNE,5.8,-,N/A,,Scattered Clouds,30,2013-09-14 05:15:00
1:35 AM,62.4,50.4,65,29.94,10.0,NNE,4.6,-,N/A,,Clear,20,2013-09-14 05:35:00
1:55 AM,61.7,50.5,67,29.94,10.0,NNE,4.6,-,N/A,,Clear,20,2013-09-14 05:55:00
2:15 AM,61.0,50.9,69,29.95,10.0,North,4.6,-,N/A,,Clear,10,2013-09-14 06:15:00
2:35 AM,60.1,51.1,72,29.95,10.0,North,4.6,-,N/A,,Clear,10,2013-09-14 06:35:00
2:55 AM,59.4,50.5,73,29.95,10.0,North,6.9,-,N/A,,Clear,10,2013-09-14 06:55:00
3:15 AM,59.9,49.5,68,29.95,10.0,North,6.9,-,N/A,,Clear,10,2013-09-14 07:15:00
3:35 AM,60.1,48.4,65,29.95,10.0,NNE,6.9,-,N/A,,Clear,30,2013-09-14 07:35:00
3:55 AM,59.7,48.2,66,29.96,10.0,NNE,5.8,-,N/A,,Clear,20,2013-09-14 07:55:00
4:15 AM,59.2,47.7,66,29.97,10.0,NNE,6.9,-,N/A,,Clear,30,2013-09-14 08:15:00
4:35 AM,59.0,47.5,66,29.97,10.0,NNE,6.9,-,N/A,,Scattered Clouds,30,2013-09-14 08:35:00
4:55 AM,58.8,47.3,66,29.98,10.0,NNE,6.9,-,N/A,,Scattered Clouds,20,2013-09-14 08:55:00
5:15 AM,58.1,47.3,67,29.99,10.0,NE,6.9,-,N/A,,Scattered Clouds,40,2013-09-14 09:15:00
5:35 AM,58.3,47.3,67,29.99,10.0,NNE,5.8,-,N/A,,Mostly Cloudy,30,2013-09-14 09:35:00
5:55 AM,58.5,47.3,66,29.99,10.0,NNE,4.6,-,N/A,,Overcast,20,2013-09-14 09:55:00
6:15 AM,58.5,47.1,66,30.00,10.0,North,5.8,-,N/A,,Overcast,10,2013-09-14 10:15:00
6:35 AM,59.0,46.6,63,30.01,10.0,NNE,6.9,-,N/A,,Overcast,20,2013-09-14 10:35:00
6:55 AM,58.5,47.1,66,30.01,10.0,NNE,5.8,-,N/A,,Overcast,20,2013-09-14 10:55:00
7:15 AM,58.5,46.2,64,30.03,10.0,North,5.8,-,N/A,,Overcast,10,2013-09-14 11:15:00
7:35 AM,59.0,45.7,61,30.03,10.0,NNE,5.8,-,N/A,,Overcast,30,2013-09-14 11:35:00
7:55 AM,59.0,45.3,60,30.04,10.0,NNE,9.2,-,N/A,,Overcast,30,2013-09-14 11:55:00
8:15 AM,59.2,45.7,61,30.05,10.0,North,5.8,-,N/A,,Overcast,360,2013-09-14 12:15:00
8:35 AM,60.1,45.1,58,30.06,10.0,NNE,9.2,-,N/A,,Scattered Clouds,20,2013-09-14 12:35:00
8:55 AM,61.3,43.9,53,30.07,10.0,NNE,11.5,-,N/A,,Scattered Clouds,30,2013-09-14 12:55:00
9:15 AM,61.7,43.3,51,30.07,10.0,NNE,9.2,19.6,N/A,,Mostly Cloudy,20,2013-09-14 13:15:00
9:35 AM,62.4,43.3,50,30.08,10.0,North,6.9,-,N/A,,Overcast,360,2013-09-14 13:35:00
9:55 AM,62.1,43.0,50,30.09,10.0,North,10.4,-,N/A,,Mostly Cloudy,360,2013-09-14 13:55:00
10:15 AM,62.8,42.6,48,30.09,10.0,North,9.2,-,N/A,,Mostly Cloudy,360,2013-09-14 14:15:00
10:35 AM,63.1,41.9,46,30.10,10.0,North,8.1,17.3,N/A,,Scattered Clouds,10,2013-09-14 14:35:00
10:55 AM,65.1,43.3,45,30.10,10.0,North,8.1,-,N/A,,Scattered Clouds,10,2013-09-14 14:55:00
11:15 AM,66.4,42.8,42,30.09,10.0,North,9.2,-,N/A,,Clear,360,2013-09-14 15:15:00
11:35 AM,66.7,42.1,41,30.10,10.0,North,9.2,-,N/A,,Scattered Clouds,10,2013-09-14 15:35:00
11:55 AM,66.9,41.5,40,30.09,10.0,North,8.1,-,N/A,,Clear,360,2013-09-14 15:55:00
12:15 PM,67.6,42.1,39,30.09,10.0,North,5.8,-,N/A,,Clear,350,2013-09-14 16:15:00
12:35 PM,69.3,42.8,38,30.09,10.0,NNE,3.5,-,N/A,,Clear,30,2013-09-14 16:35:00
12:55 PM,69.6,43.0,38,30.09,10.0,NNE,5.8,-,N/A,,Clear,20,2013-09-14 16:55:00
1:15 PM,70.3,42.8,37,30.08,10.0,NNE,10.4,-,N/A,,Clear,30,2013-09-14 17:15:00
1:35 PM,71.1,42.3,35,30.08,10.0,NE,6.9,-,N/A,,Clear,40,2013-09-14 17:35:00
1:55 PM,70.9,41.4,34,30.08,10.0,NNE,6.9,-,N/A,,Clear,30,2013-09-14 17:55:00
2:15 PM,71.1,41.7,35,30.07,10.0,Calm,Calm,-,N/A,,Clear,0,2013-09-14 18:15:00
2:35 PM,71.6,42.4,35,30.07,10.0,Calm,Calm,-,N/A,,Clear,0,2013-09-14 18:35:00
2:55 PM,72.5,42.6,34,30.07,10.0,NNW,6.9,-,N/A,,Clear,330,2013-09-14 18:55:00
3:15 PM,72.7,42.6,34,30.06,10.0,Calm,Calm,-,N/A,,Clear,0,2013-09-14 19:15:00
3:35 PM,73.8,43.0,33,30.06,10.0,NNW,5.8,-,N/A,,Clear,340,2013-09-14 19:35:00
3:55 PM,74.3,43.7,33,30.06,10.0,North,6.9,-,N/A,,Clear,350,2013-09-14 19:55:00
4:15 PM,73.9,43.3,33,30.06,10.0,NW,4.6,-,N/A,,Clear,310,2013-09-14 20:15:00
4:35 PM,73.4,43.5,34,30.06,10.0,Calm,Calm,-,N/A,,Clear,0,2013-09-14 20:35:00
4:55 PM,73.9,44.2,35,30.06,10.0,NW,3.5,-,N/A,,Clear,320,2013-09-14 20:55:00
5:15 PM,73.4,44.1,35,30.07,10.0,WNW,3.5,-,N/A,,Clear,290,2013-09-14 21:15:00
5:35 PM,73.2,44.2,35,30.07,10.0,Calm,Calm,-,N/A,,Clear,0,2013-09-14 21:35:00
5:55 PM,72.7,44.6,37,30.07,10.0,North,4.6,-,N/A,,Clear,10,2013-09-14 21:55:00
6:15 PM,72.1,44.6,37,30.08,10.0,Calm,Calm,-,N/A,,Clear,0,2013-09-14 22:15:00
6:35 PM,71.6,46.0,40,30.08,10.0,North,3.5,-,N/A,,Clear,360,2013-09-14 22:35:00
6:55 PM,69.8,46.9,44,30.08,10.0,Calm,Calm,-,N/A,,Clear,0,2013-09-14 22:55:00
7:15 PM,67.5,50.0,53,30.08,10.0,Calm,Calm,-,N/A,,Clear,0,2013-09-14 23:15:00
7:35 PM,65.1,49.5,57,30.09,10.0,Calm,Calm,-,N/A,,Clear,0,2013-09-14 23:35:00
7:55 PM,64.2,49.5,59,30.09,10.0,Calm,Calm,-,N/A,,Clear,0,2013-09-14 23:55:00
8:15 PM,62.6,50.5,65,30.10,10.0,Calm,Calm,-,N/A,,Clear,0,2013-09-15 00:15:00
8:35 PM,60.8,49.6,67,30.11,10.0,Calm,Calm,-,N/A,,Clear,0,2013-09-15 00:35:00
8:55 PM,60.3,51.4,73,30.12,10.0,Calm,Calm,-,N/A,,Clear,0,2013-09-15 00:55:00
9:15 PM,58.3,50.9,76,30.13,10.0,Calm,Calm,-,N/A,,Clear,0,2013-09-15 01:15:00
9:35 PM,56.5,50.9,82,30.14,10.0,NE,3.5,-,N/A,,Clear,50,2013-09-15 01:35:00
9:55 PM,59.2,50.0,72,30.16,10.0,NE,4.6,-,N/A,,Clear,40,2013-09-15 01:55:00
10:15 PM,58.3,49.6,73,30.16,10.0,Calm,Calm,-,N/A,,Clear,0,2013-09-15 02:15:00
10:35 PM,57.9,50.0,75,30.16,10.0,Calm,Calm,-,N/A,,Clear,0,2013-09-15 02:35:00
10:55 PM,57.2,49.5,75,30.16,10.0,ENE,4.6,-,N/A,,Clear,60,2013-09-15 02:55:00
11:15 PM,57.6,49.1,73,30.16,10.0,NE,3.5,-,N/A,,Clear,50,2013-09-15 03:15:00
11:35 PM,57.4,49.1,74,30.16,10.0,NE,3.5,-,N/A,,Clear,50,2013-09-15 03:35:00
11:55 PM,57.6,49.3,74,30.17,10.0,Calm,Calm,-,N/A,,Clear,0,2013-09-15 03:55:00